Location: Fernhill
(41.0167°S, 175.6333°E)
Time: 02:49:20
(UTC+00:00)

ERS-1 Rocket - Pass Details

Date: 08 November 2025
Orbit: 747 x 751 km, 98.2° (Epoch: 15 December)

Event Time Altitude Azimuth Distance (km) Brightness Sun altitude
Rises 09:01:38 0° 158° (SSE) 3,240 6.5 -18.9°
Reaches altitude 10° 09:04:08 10° 149° (SSE) 2,306 5.6 -19.2°
Maximum altitude 09:08:47 35° 83° (E) 1,208 3.6 -19.8°
Enters shadow 09:09:02 35° 77° (ENE) 1,212 3.6 -19.9°
